BEIDOU 9 (C09)

Last updated on Mon Feb 13 2023 00:03:21 GMT+0000 (Coordinated Universal Time)

1 37763U 11038A 23043.33631098 -.00000020 00000+0 00000+0 0 9995 2 37763 54.4884 176.5472 0103974 227.5486 314.6254 1.00273634 42402
UTC large
Height (km)
Speed (km/s)
/
Latitude / Longitude
Inclination (degrees)
Orbital Period (minutes)
Azimuth
Elevation
Range (km)
Doppler Factor

Next 0 passes for location: London (51.5072 / 0.1276)

Sorry there are no passes over London.